STARLINK-2292 (48023 NORAD) Tracking and Keplerian Element Data

This shows tracking and keplerian element data for the satellite.

Feedback or suggestion? Click here.




ElementValue
Catalog48023
NameSTARLINK-2292
Epoch Orbit1517
Epoch Day173.28607218
Epoch Year2021
RAAN139.2857
Inclination53.0545
Eccentricity0.0001418
Argument of Perigee63.6854
Mean Anonmoly296.428
Mean Motion15.06392559
Decay Rate-1.432E-05
L11 48023U 21024AY 21173.28607218 -.00001432 00000-0 -77270-4 0 9993
L22 48023 53.0545 139.2857 0001418 63.6854 296.4280 15.06392559 15172

Live tracking and technical data element details for STARLINK-2292 (NORAD 48023). STARLINK-2292 can be tracked NOW for your location showing map with azimuth and elevation plus other details from your city location.

Track the satellite on the map from your city or location and see movement details for azimuth, elevation, latitude, longitude, range, height, and movement on the map or in text.







IsCatalogInMostPopularTable: catalog: 48023, numindb: 39
Update: records affected: 1



GetName: 48023 STARLINK-2292

Hit Count: updated at: Thu, 24 Jun 2021 04:19:38 GMT